Orbital Elements at Epoch 2459200.5 (2020-Dec-17.0) TDB
Reference: JPL 27 (heliocentric ecliptic J2000)
Element | Value | Uncertainty (1-sigma) | Units |
e | .1214141628093173 | 3.6579e-08 | |
a | 3.078563314942512 | 1.9625e-08 | au |
q | 2.704782127403291 | 1.1088e-07 | au |
i | 12.58228523751765 | 4.3194e-06 | deg |
node | 159.1425601856548 | 1.821e-05 | deg |
peri | 100.3447596441991 | 2.9505e-05 | deg |
M | 69.56302357839844 | 2.0502e-05 | deg |
tp | 2458819.261711297823 (2019-Dec-01.76171130) | 0.00011193 | TDB |
period | 1972.970363746567 5.40 | 1.8866e-05 5.165e-08 | d yr |
n | .1824659947331286 | 1.7448e-09 | deg/d |
Q | 3.452344502481734 | 2.2008e-08 | au |
|
| | Orbit Determination Parameters
Additional Information
|